SCP
0 0 0 0 0 0 0 0 0 0 0 0 0 0 0 0 0 0 0 0 0 0 0 0 0 0 0 0 0 0 0 0 0 0 0 0 0 0 0 0 0 0 0
0 0 0 0 0 0 0 0 0 0 0 0 0 0 0 0 0 0 0 0 0 0 0 0 0 0 0 0 0 0 0 0 0 0 0 0 0 0 0 0 0 0 0
0 0 0 0 0 0 0 0 0 0 0 0 0 0 0 0 0 0 0 0 0 0 0 0 0 0 0 0 0 0 0 0 0 0 0 0 0 0 0 0 0 0 0
0 0 0 0 0 0 0 0 0 0 0 0 0 0 0 0 0 0 0 0 0 0 0 0 0 0 0 0 0 0 0 0 0 0 0 0 0 0 0 0 0 0 0
1 0 0 1 1 0 0 0 0 0 0 0 0 0 0 0 0 0 0 0 0 0 0 0 0 0 0 0 0 0 0 0 0 0 0 0 0 0 0 0 0 0 0
1 1 1 1 1 1 0 0 0 0 0 0 0 0 0 0 0 0 0 0 0 0 0 0 0 0 0 0 0 0 0 0 0 0 0 0 0 0 0 0 0 0 0
1 1 1 1 1 1 1 0 0 0 0 0 0 0 0 0 0 0 0 0 0 0 0 0 0 0 0 0 0 0 0 0 0 0 0 0 0 0 0 0 0 0 0
1 1 1 1 1 1 1 0 0 0 0 0 0 0 0 0 0 0 0 0 0 0 0 0 0 0 0 0 0 0 0 0 0 0 0 0 0 0 0 0 0 0 0
1 1 1 1 1 1 1 0 0 0 0 0 0 0 0 0 0 0 0 0 0 0 0 0 0 0 0 0 0 0 0 0 0 0 0 0 0 0 0 0 0 0 0
1 1 1 1 1 1 1 0 0 0 0 0 0 0 0 0 0 0 0 0 0 0 0 0 0 0 0 0 0 0 0 0 0 0 0 0 0 0 0 0 0 0 0
1 1 1 1 1 1 1 0 0 0 0 0 0 0 0 0 0 0 0 0 0 0 0 0 0 0 0 0 0 0 0 0 0 0 0 0 0 0 0 0 0 0 0
1 1 1 1 1 1 1 1 0 0 0 0 0 0 0 0 0 0 0 0 0 0 0 0 0 0 0 0 0 0 0 0 0 0 0 0 0 0 0 0 0 0 0
1 1 1 1 1 1 1 1 0 0 0 0 0 0 0 0 0 0 0 0 0 0 0 0 0 0 0 0 0 0 0 0 0 0 0 0 0 0 0 0 0 0 0
1 1 1 1 1 1 1 1 1 0 0 0 0 0 0 0 0 0 0 0 0 0 0 0 0 0 0 0 0 0 0 0 0 0 0 0 0 0 0 0 0 0 0
1 1 1 1 1 1 1 1 0 0 0 0 0 0 0 0 0 0 0 0 0 0 0 0 0 0 0 0 0 0 0 0 0 0 0 0 0 0 0 0 0 0 0
1 1 1 1 1 1 1 1 0 0 0 0 0 0 0 0 0 0 0 0 0 0 0 0 0 0 0 0 0 0 0 0 0 0 0 0 0 0 0 0 0 0 0
1 1 1 1 1 1 1 0 0 0 0 0 0 0 0 0 0 0 0 0 0 0 0 0 0 0 0 0 0 0 0 0 0 0 0 0 0 0 0 0 0 0 0
0 0 0 0 0 0 0 0 0 0 0 0 0 0 0 0 0 0 0 0 0 0 0 0 0 0 0 0 0 0 0 0 0 0 0 0 0 0 0 0 0 0 0
0 0 0 0 0 0 0 0 0 0 0 0 0 0 0 0 0 0 0 0 0 0 0 0 0 0 0 0 0 0 0 0 0 0 0 0 0 0 0 0 0 0 0
0 0 0 0 0 0 0 0 0 0 0 0 0 0 0 0 0 0 0 0 0 0 0 0 0 0 0 0 0 0 0 0 0 0 0 0 0 0 0 0 0 0 0
0 0 0 0 0 0 0 0 0 0 0 0 0 0 0 0 0 0 0 0 0 0 0 0 0 0 0 0 0 0 0 0 0 0 0 0 0 0 0 0 0 0 0
0 0 0 0 0 0 0 0 0 0 0 0 0 0 0 0 0 0 0 0 0 0 0 0 0 0 0 0 0 0 0 0 0 0 0 0 0 0 0 0 0 0 0
0 0 1 0 0 0 0 0 0 0 0 0 0 0 0 0 0 0 0 0 0 0 0 0 0 0 0 0 0 0 0 0 0 0 0 0 0 0 0 0 0 0 0
0 1 1 0 0 0 0 0 0 0 0 0 0 0 0 0 0 0 0 0 0 0 0 0 0 0 0 0 0 0 0 0 0 0 0 0 0 0 0 0 0 0 0
0 1 0 0 0 0 0 0 0 0 0 0 0 0 0 0 0 0 0 0 0 0 0 0 0 0 0 0 0 0 0 0 0 0 0 0 0 0 0 0 0 0 0
0 0 0 0 0 0 0 0 0 0 0 0 0 0 0 0 0 0 0 0 0 0 0 0 0 0 0 0 0 0 0 0 0 0 0 0 0 -0 0 0 0 0 0
Wind_Speed
8 10 17 17 17 17 17 17 17 17 17 17 17 17 17 16 15 14 14 13 12 12 12 12 13 13 13 13 13 13 13 13 13 13 14 14 14 14 15 15 15 12 16
13 13 18 18 17 17 17 17 17 17 17 17 17 16 16 15 15 14 13 13 13 13 13 13 13 13 13 13 13 13 13 12 12 13 13 13 14 14 14 14 14 10 15
15 13 16 18 18 17 17 17 17 16 16 16 16 16 15 15 14 14 13 13 13 13 13 13 13 13 13 13 13 12 12 12 12 12 12 8 10 13 13 14 14 14 14
15 11 13 19 18 18 17 17 16 16 16 15 15 15 14 14 14 13 13 13 13 13 13 13 13 13 13 12 12 11 12 12 12 12 7 7 8 12 13 14 13 14 13
13 11 14 20 18 18 17 16 16 16 15 15 14 14 14 13 13 13 12 13 12 12 13 13 12 12 12 11 10 9 10 11 11 9 6 6 6 11 13 13 13 13 13
12 10 14 20 19 18 17 16 16 15 15 14 14 13 13 12 12 12 12 12 12 12 12 12 11 11 10 10 8 8 8 11 10 7 6 6 6 11 12 13 13 12 12
11 9 12 19 19 18 17 17 16 15 15 14 13 12 12 11 11 11 11 11 11 11 11 10 10 9 8 8 7 7 9 11 8 7 6 5 6 10 12 12 12 12 11
12 9 10 18 18 18 17 17 16 15 14 14 13 12 11 11 10 10 10 10 10 10 9 9 8 7 7 6 6 8 10 11 9 7 6 5 8 10 11 11 11 11 11
11 10 8 10 13 17 17 17 16 15 14 13 13 12 11 11 10 9 9 9 9 8 8 7 7 6 6 5 5 7 9 11 7 5 6 4 8 10 11 11 11 11 10
9 8 8 8 8 8 10 16 15 15 14 13 12 12 11 10 9 9 7 8 8 7 7 6 6 6 5 5 5 6 8 9 6 5 3 5 9 10 10 10 10 10 10
9 7 7 7 7 7 7 11 13 14 13 12 10 12 9 4 4 4 6 7 7 6 5 5 5 5 5 4 5 6 7 3 5 3 3 6 9 10 10 10 9 9 9
12 10 7 7 7 7 7 6 4 5 6 5 4 5 4 3 3 3 4 6 6 5 4 4 4 4 4 2 3 5 3 4 3 3 3 7 8 9 9 9 9 9 9
13 12 9 8 7 7 4 5 3 3 3 4 4 5 4 3 2 2 1 1 2 3 2 3 3 3 2 2 2 2 3 3 2 2 3 7 7 8 9 9 9 9 9
12 11 10 8 7 6 4 4 4 3 3 3 4 5 4 2 2 2 1 1 2 1 2 2 2 2 2 1 2 2 3 2 2 1 2 6 6 7 8 8 8 8 8
11 11 10 9 8 6 5 4 5 4 4 4 3 4 4 3 3 2 1 1 2 1 1 1 1 2 2 1 1 2 2 2 2 2 1 4 6 6 7 8 8 8 8
11 11 10 10 8 7 5 4 4 4 4 3 3 4 5 4 3 3 2 2 2 1 1 1 1 1 1 1 1 1 1 1 1 1 1 1 4 5 6 7 7 7 8
10 10 10 10 8 8 7 6 4 4 4 3 3 4 4 4 4 4 3 2 2 2 2 1 2 2 1 1 2 2 1 1 1 1 1 0 1 3 4 5 6 7 7
10 10 10 10 9 8 7 6 4 4 4 3 3 3 4 4 5 4 3 2 2 2 2 2 1 2 2 1 1 1 1 1 0 0 0 1 1 1 2 4 5 5 7
10 11 10 8 9 8 7 5 5 4 4 4 3 3 4 4 5 4 3 3 3 3 2 2 2 2 1 1 1 2 2 1 1 0 0 1 1 1 1 1 2 3 6
8 10 10 9 8 8 6 4 4 3 3 3 3 4 5 4 5 4 3 4 3 3 2 2 2 2 2 1 2 3 2 2 1 1 1 1 0 1 1 0 0 1 3
8 10 12 10 9 8 6 5 5 4 3 3 3 5 6 5 5 5 4 4 3 3 3 3 2 3 2 1 2 3 3 3 2 2 1 1 1 0 0 0 0 0 1
10 10 11 10 9 8 6 5 3 4 3 2 2 4 5 6 6 5 5 4 4 3 3 3 3 2 2 2 2 2 2 2 3 3 2 1 1 1 0 0 1 1 0
9 10 10 10 9 8 7 5 4 4 3 2 2 3 3 5 5 5 6 5 4 4 3 3 3 4 3 2 1 3 3 2 1 2 3 2 2 1 1 1 0 1 1
9 8 8 9 9 8 8 8 8 5 4 4 4 3 3 4 5 5 6 5 5 4 4 3 3 2 3 2 1 1 1 2 2 0 2 2 2 2 2 1 1 0 1
9 9 9 9 8 8 8 9 8 5 3 3 3 5 4 3 4 5 5 5 5 4 4 4 3 3 2 3 2 2 2 2 1 2 1 2 2 2 2 1 1 1 0
8 9 9 10 8 8 8 8 8 8 7 6 5 5 4 3 3 4 5 5 5 4 4 4 4 4 3 3 2 2 2 2 2 2 2 1 1 2 2 1 1 1 1
Wind_Direction
154 156 151 143 135 130 126 123 121 120 120 120 121 122 123 123 123 123 122 119 116 113 110 108 106 106 106 107 108 108 108 109 111 114 115 114 114 114 113 111 108 108 109
147 153 152 146 139 134 130 127 125 124 123 124 124 124 125 125 125 124 122 119 117 114 112 110 109 109 109 109 110 110 111 112 114 117 118 117 116 116 114 113 111 114 114
144 150 151 148 143 138 135 132 130 128 127 126 126 127 128 127 125 124 122 120 118 116 114 112 112 111 110 111 112 113 113 112 112 112 110 110 117 119 119 118 117 116 116
143 146 150 150 146 143 139 136 134 132 130 129 129 129 130 129 128 126 124 123 120 118 115 114 114 113 113 113 113 115 118 117 114 108 98 109 119 123 122 120 120 119 119
143 145 155 152 150 146 143 140 138 136 134 133 132 132 132 130 128 127 126 124 121 120 117 116 116 115 114 114 115 118 123 123 120 109 99 99 108 125 123 123 122 121 121
143 147 158 154 153 150 147 144 143 140 138 137 136 135 134 133 132 130 128 126 123 121 118 117 116 116 115 115 116 124 132 130 119 114 110 111 119 129 128 127 126 124 124
144 150 158 157 155 153 151 149 147 145 144 142 141 139 137 136 134 134 130 128 126 124 121 119 118 116 114 113 116 126 133 131 122 122 120 121 129 133 131 128 127 127 127
146 147 154 159 158 157 155 153 151 150 149 146 145 143 142 140 138 136 136 133 129 127 124 121 118 114 108 107 114 125 132 130 130 131 127 130 137 135 135 133 132 131 130
148 149 154 158 161 161 159 157 155 155 153 151 150 149 148 145 144 143 140 138 135 132 128 124 120 112 105 101 110 129 137 135 125 132 139 138 145 143 141 139 138 137 138
149 151 152 154 155 156 158 159 158 157 157 156 154 153 153 151 150 149 142 144 142 140 135 130 121 111 101 97 106 130 138 127 126 131 133 153 155 152 148 147 145 143 144
159 157 154 153 148 145 151 164 162 161 162 160 157 159 152 129 129 141 152 153 149 146 142 134 121 105 90 81 98 118 121 115 126 130 143 164 164 160 154 153 153 152 152
170 168 161 154 151 149 161 155 148 150 149 141 138 136 116 111 130 143 169 160 154 150 143 132 115 91 70 52 72 101 107 123 125 139 167 172 169 167 161 159 160 159 158
172 172 166 159 154 155 149 142 137 130 130 131 135 125 121 115 116 114 106 130 120 122 82 82 75 66 70 72 70 95 122 124 131 150 177 174 171 171 167 168 169 166 164
172 172 161 160 154 153 142 144 140 139 140 143 144 138 133 128 128 123 113 100 85 75 83 72 74 77 73 80 103 115 129 133 144 146 183 176 175 178 175 176 177 177 175
172 168 167 166 163 153 141 152 155 151 150 148 145 146 147 146 152 142 126 110 104 100 104 95 84 86 73 66 95 132 143 149 155 153 185 192 187 190 185 184 184 184 184
175 172 172 173 166 155 153 157 153 153 148 148 152 158 157 154 155 149 139 134 131 129 116 108 101 89 68 55 49 68 114 136 149 153 167 217 205 195 197 197 194 193 194
177 173 177 174 165 164 159 163 157 155 149 154 157 156 155 156 158 151 148 153 152 134 121 98 80 70 73 63 45 39 67 100 126 157 166 174 222 212 209 207 204 207 207
173 172 179 179 170 169 160 157 151 154 151 154 151 151 154 158 158 150 154 156 145 133 126 117 91 78 62 62 56 28 36 42 34 175 166 183 189 219 224 222 216 213 217
175 171 176 172 170 167 157 151 145 146 151 150 151 152 153 154 154 150 149 143 137 130 127 133 89 95 90 69 72 49 26 24 352 350 15 227 202 198 211 249 242 227 228
178 171 173 171 169 158 147 135 128 132 141 141 156 156 151 150 149 142 134 133 133 127 120 112 102 78 80 78 70 54 28 10 16 16 335 312 229 196 187 200 340 275 250
177 174 173 173 168 158 155 153 151 156 152 152 163 156 153 151 149 141 133 131 134 136 140 133 112 90 63 62 80 43 16 17 30 23 2 4 6 354 161 182 176 202 312
180 178 174 172 168 163 163 153 145 137 140 141 148 146 152 151 152 150 143 145 142 130 126 128 126 115 73 57 112 103 42 1 2 16 15 24 7 8 349 235 168 185 210
181 181 178 173 167 160 151 131 121 107 97 110 137 148 159 156 157 149 151 147 147 144 148 147 142 136 127 72 74 140 146 198 309 347 10 22 10 16 357 345 195 188 199
185 178 169 165 162 158 156 159 162 160 160 175 165 158 155 159 156 154 153 151 150 150 153 159 144 138 135 133 93 57 104 147 145 76 345 358 6 14 352 353 7 0 196
177 170 164 159 162 163 167 168 167 159 148 139 138 147 155 157 162 162 157 154 155 157 159 151 142 143 140 147 152 137 101 72 86 136 180 332 354 355 348 340 333 317 265
167 165 165 165 167 166 167 168 169 163 156 152 157 162 163 157 164 172 164 163 164 162 162 158 154 151 146 141 145 149 154 152 157 144 156 221 310 322 332 334 318 302 276